[[{"header":{"parameterUnit":"m.s-1","parameterCategory":1,"la1":30.2991,"la2":30.254,"lo1":-89.0895,"lo2":-89.0444,"dy":0.0017,"dx":0.0017,"nx":28,"ny":28,"refTime":"2024-11-29T03:00:00:Z","depth":0,"parameterNumber":2,"parameterNumberName":"U-component_of_WINDS"},"data":[0,0,0,0,0,0,0,0,0,0,0,0,0,0,0,0,0,0,0,0,0,0,0,0,0,0,0,0,0,0,0,0,0,0,0,0,0,0,0,0,0,0,0,0,0,0,0,0,0,0,0,0,0,0,0,0,0,0,-0.9031,-0.9032,0,-0.9129,-0.9131,-0.9132,-0.9128,-0.9126,-0.9125,-0.9124,-0.9226,-0.923,-0.9234,0,0,0,0,0,0,0,0,0,0,0,0,0,-0.884,-0.8843,-0.9031,-0.9032,-0.9033,-0.9129,-0.9131,-0.9132,-0.9128,-0.9126,-0.9125,-0.9123,-0.9225,-0.923,-0.9235,0,0,0,0,0,0,0,0,0,0,0,0,0,-0.8929,-0.8844,-0.903,-0.9043,-0.9045,-0.9129,-0.9131,-0.9132,-0.9128,-0.9126,-0.9124,-0.9122,-0.9223,-0.9229,-0.9235,-0.9314,0,0,-0.9254,-0.9256,0,0,0,0,0,0,0,0,-0.8924,-0.8936,-0.904,-0.9042,-0.9045,-0.9114,-0.9101,-0.9193,-0.9129,-0.9097,-0.9124,-0.9121,-0.9191,-0.9199,-0.9223,-0.9319,-0.9323,-0.9254,-0.9258,-0.9261,-0.9262,0,0,0,0,0,0,0,-0.8918,-0.8932,-0.907,-0.9041,-0.9044,-0.9044,-0.9054,-0.9118,-0.9154,-0.9099,-0.9099,-0.9111,-0.9192,-0.9217,-0.9225,-0.9325,-0.9254,-0.9259,-0.9263,-0.9266,-0.9491,-0.9493,0,0,0,0,0,0,-0.8909,-0.8927,-0.9067,-0.9073,-0.8978,-0.9049,-0.906,-0.9094,-0.9154,-0.9161,-0.9113,-0.911,-0.9207,-0.9218,-0.9229,-0.9325,-0.926,-0.9266,-0.927,-0.9488,-0.9491,-0.9494,0,0,0,0,0,0,-0.8905,-0.8921,-0.9063,-0.9,-0.9018,-0.9054,-0.9092,-0.9097,-0.9122,-0.9164,-0.917,-0.9132,-0.9206,-0.922,-0.9293,-0.9329,-0.9269,-0.9274,-0.9486,-0.9489,-0.9493,-0.9519,0,0,0,0,0,0,-0.8899,-0.892,-0.895,-0.9,-0.9021,-0.9125,-0.9094,-0.91,-0.9132,-0.913,-0.9183,-0.919,-0.9206,-0.9284,-0.9299,-0.9336,-0.9279,-0.9483,-0.9487,-0.9491,-0.9515,-0.9523,-0.953,0,0,0,0,0,-0.8892,-0.8954,-0.8952,-0.8969,-0.906,-0.9127,-0.9139,-0.9156,-0.9135,-0.9166,-0.9193,-0.9188,-0.9322,-0.9291,-0.9308,-0.9348,-0.9481,-0.9486,-0.9491,-0.9512,-0.9522,-0.953,0,0,0,0,0,0,-0.8908,-0.8961,-0.8959,-0.9039,-0.9078,-0.9127,-0.9166,-0.9165,-0.9212,-0.9209,-0.9227,-0.9239,-0.9312,-0.9337,-0.9302,-0.9427,-0.9399,-0.9408,-0.9409,-0.9418,-0.9425,-0.9419,-0.9284,0,0,0,0,0,-0.8921,-0.8971,-0.9014,-0.908,-0.91,-0.913,-0.916,-0.9169,-0.9211,-0.9228,-0.926,-0.9302,-0.9353,-0.9387,-0.9436,-0.9518,-0.953,-0.9553,-0.9561,-0.9566,-0.9575,-0.962,-0.9631,-0.9511,-0.9511,-0.9511,0,0,-0.8948,-0.8982,-0.9013,-0.9084,-0.9116,-0.9168,-0.9144,-0.92,-0.9239,-0.9237,-0.9308,-0.9332,-0.938,-0.9457,-0.9493,-0.948,-0.961,-0.9573,-0.9577,-0.9583,-0.9627,-0.9638,-0.9648,-0.9515,-0.9514,-0.9514,0,0,-0.9023,-0.9054,-0.9113,-0.9145,-0.9193,-0.9212,-0.9226,-0.9274,-0.9291,-0.9361,-0.9361,-0.9407,-0.9495,-0.9529,-0.9558,-0.9645,-0.9643,-0.966,-0.9699,-0.9743,-0.9753,-0.9761,-0.9793,-0.9804,-0.9668,-0.9668,-0.9668,0,-0.9051,-0.9129,-0.9143,-0.92,-0.9231,-0.923,-0.929,-0.9321,-0.9383,-0.9405,-0.9389,-0.9499,-0.9531,-0.9617,-0.9638,-0.966,-0.9678,-0.9655,-0.975,-0.9759,-0.9767,-0.9798,-0.9809,-0.967,-0.967,-0.9669,-0.9669,0,-0.9161,-0.9215,-0.9256,-0.9316,-0.9352,-0.941,-0.9433,-0.9468,-0.9473,-0.9493,-0.9566,-0.9603,-0.9661,-0.9681,-0.9687,-0.9768,-0.9758,-0.9746,-0.9718,-0.978,-0.9809,-0.9821,-0.9672,-0.9672,-0.9671,-0.9671,0,0,-0.9252,-0.9317,-0.9332,-0.9359,-0.9412,-0.9454,-0.9511,-0.9566,-0.9596,-0.9638,-0.9687,-0.9761,-0.975,-0.9782,-0.9792,-0.983,-0.9897,-0.9813,-0.9815,-0.9829,-0.9989,-0.9999,-1.0013,-0.9895,-0.9897,-0.9899,-0.9986,0,-0.9334,-0.9436,-0.945,-0.954,-0.959,-0.9589,-0.9639,-0.9677,-0.9697,-0.9743,-0.9765,-0.9817,-0.9798,-0.9818,-0.9855,-0.9881,-0.993,-0.9875,-0.9942,-0.9944,-0.9932,-1.0028,-1.0039,-1.0119,-0.9997,-0.9999,-1.0,0,-0.9444,-0.9489,-0.9584,-0.9629,-0.9651,-0.9696,-0.9747,-0.979,-0.9833,-0.9845,-0.988,-0.9885,-0.9944,-0.9912,-0.9995,-0.9957,-0.9985,-1.0001,-1.0005,-1.0013,-0.9977,-1.004,-1.0144,-1.0157,-1.0018,-1.0017,-1.0015,0,-0.9503,-0.9586,-0.9654,-0.9677,-0.9731,-0.9762,-0.9786,-0.9826,-0.9859,-0.9903,-0.9924,-0.9975,-1.0004,-1.0043,-1.0062,-1.0036,-1.0143,-1.0113,-1.0156,-1.0155,-1.018,-1.0179,-1.0292,-1.0195,-1.0195,-1.0195,-1.0195,0,-0.9594,-0.9653,-0.9681,-0.9723,-0.9788,-0.9803,-0.9868,-0.9891,-0.9926,-0.9973,-0.9974,-1.0018,-1.0038,-1.0085,-1.0099,-1.0166,-1.0178,-1.019,-1.0194,-1.0191,-1.019,-1.0211,-1.0207,-1.0198,-1.0197,-1.0197,-1.0196,0,-0.9671,-0.9692,-0.9766,-0.9811,-0.9823,-0.9869,-0.9908,-0.9948,-0.9967,-1.0026,-1.004,-1.0071,-1.0125,-1.0147,-1.0214,-1.0223,-1.0301,-1.0299,-1.0287,-1.0288,-1.033,-1.0327,-1.0462,-1.0481,-1.0371,-1.0372,-1.0373,0,-0.9729,-0.9774,-0.9823,-0.9854,-0.9879,-0.9929,-0.9961,-0.9977,-1.0011,-1.0062,-1.0096,-1.0151,-1.0196,-1.0283,-1.0311,-1.0363,-1.0363,-1.0407,-1.0371,-1.0367,-1.0365,-1.0363,-1.0368,-1.0414,-1.0416,-1.0416,-1.0417,0,-0.983,-0.9838,-0.9885,-0.9935,-0.9973,-1.0014,-1.0053,-1.0078,-1.01,-1.0138,-1.0194,-1.0228,-1.0296,-1.0351,-1.0403,-1.0428,-1.0427,-1.0428,-1.0441,-1.044,-1.0431,-1.0438,-1.0306,-1.0425,-1.0425,-1.0424,-1.0423,-1.0423,-0.9901,-0.9941,-0.9981,-1.0033,-1.0064,-1.01,-1.014,-1.0164,-1.021,-1.0267,-1.0273,-1.0333,-1.0374,-1.0444,-1.0471,-1.0518,-1.0506,-1.0525,-1.053,-1.0535,-1.0538,-1.0422,-1.0527,-1.0527,-1.0527,-1.0527,-1.0527,0,-1.0003,-1.0029,-1.0076,-1.013,-1.0171,-1.0164,-1.0207,-1.0242,-1.0295,-1.0332,-1.0375,-1.044,-1.0492,-1.0523,-1.0576,-1.0608,-1.0608,-1.0621,-1.062,-1.0626,-1.0545,-1.0529,-1.062,-1.062,-1.0619,-1.0619,-1.0619,-1.0619,-1.0061,-1.0129,-1.0141,-1.0223,-1.0248,-1.0307,-1.0332,-1.0366,-1.0396,-1.0467,-1.051,-1.053,-1.0565,-1.062,-1.0667,-1.0675,-1.0695,-1.0709,-1.0716,-1.0641,-1.0631,-1.0622,-1.0607,-1.0713,-1.0713,-1.0793,-1.0794,-1.0794]},{"header":{"parameterUnit":"m.s-1","parameterCategory":1,"la1":30.2991,"la2":30.254,"lo1":-89.0895,"lo2":-89.0444,"dy":0.0017,"dx":0.0017,"nx":28,"ny":28,"refTime":"2024-11-29T03:00:00:Z","depth":0,"parameterNumber":3,"parameterNumberName":"V-component_of_WINDS"},"data":[0,0,0,0,0,0,0,0,0,0,0,0,0,0,0,0,0,0,0,0,0,0,0,0,0,0,0,0,0,0,0,0,0,0,0,0,0,0,0,0,0,0,0,0,0,0,0,0,0,0,0,0,0,0,0,0,0,0,-7.5595,-7.5597,0,-7.5741,-7.5743,-7.5744,-7.5678,-7.5674,-7.5671,-7.5667,-7.581,-7.5817,-7.5824,0,0,0,0,0,0,0,0,0,0,0,0,0,-7.5252,-7.5259,-7.5595,-7.5597,-7.5599,-7.5741,-7.5743,-7.5745,-7.5678,-7.5674,-7.567,-7.5665,-7.5808,-7.5816,-7.5825,0,0,0,0,0,0,0,0,0,0,0,0,0,-7.54,-7.5261,-7.5594,-7.5583,-7.5583,-7.574,-7.5743,-7.5745,-7.5679,-7.5674,-7.5668,-7.5663,-7.5805,-7.5816,-7.5826,-7.6002,0,0,-7.5859,-7.5864,0,0,0,0,0,0,0,0,-7.5391,-7.5412,-7.5583,-7.5584,-7.5585,-7.5686,-7.5674,-7.5831,-7.5681,-7.5643,-7.5667,-7.5661,-7.5773,-7.5786,-7.5825,-7.6008,-7.6014,-7.586,-7.5867,-7.5871,-7.5874,0,0,0,0,0,0,0,-7.5381,-7.5406,-7.5652,-7.5585,-7.5586,-7.5568,-7.5583,-7.5704,-7.5736,-7.5646,-7.5641,-7.566,-7.5772,-7.5815,-7.5828,-7.6016,-7.586,-7.5869,-7.5876,-7.588,-7.635,-7.6356,0,0,0,0,0,0,-7.5372,-7.5398,-7.5648,-7.5657,-7.5473,-7.5579,-7.5595,-7.5659,-7.5735,-7.5741,-7.5664,-7.5656,-7.5799,-7.5815,-7.5833,-7.6043,-7.5871,-7.5881,-7.5887,-7.6344,-7.6351,-7.6358,0,0,0,0,0,0,-7.5365,-7.5395,-7.5642,-7.5526,-7.5556,-7.559,-7.5662,-7.5664,-7.5707,-7.5749,-7.5754,-7.5702,-7.5795,-7.5817,-7.596,-7.6047,-7.5886,-7.5896,-7.6337,-7.6346,-7.6354,-7.6465,0,0,0,0,0,0,-7.5356,-7.5393,-7.5462,-7.5528,-7.5563,-7.577,-7.5667,-7.5671,-7.5727,-7.5717,-7.5786,-7.5792,-7.5793,-7.5945,-7.5971,-7.6059,-7.5904,-7.6329,-7.6341,-7.6352,-7.6454,-7.6477,-7.6496,0,0,0,0,0,-7.5344,-7.5485,-7.5465,-7.5496,-7.5649,-7.5775,-7.5794,-7.5794,-7.5734,-7.5802,-7.5829,-7.579,-7.6033,-7.596,-7.5989,-7.6081,-7.6324,-7.6338,-7.6351,-7.6444,-7.6472,-7.6496,0,0,0,0,0,0,-7.5426,-7.5494,-7.5472,-7.5641,-7.5703,-7.5763,-7.5849,-7.5824,-7.5902,-7.589,-7.5885,-7.5901,-7.6049,-7.6079,-7.5996,-7.6255,-7.6169,-7.6189,-7.623,-7.6257,-7.6278,-7.6267,-7.5913,0,0,0,0,0,-7.5464,-7.5562,-7.5615,-7.5758,-7.5791,-7.5815,-7.587,-7.5865,-7.5927,-7.5953,-7.599,-7.6051,-7.6141,-7.62,-7.6285,-7.6457,-7.6471,-7.6535,-7.6556,-7.6574,-7.6591,-7.6684,-7.6713,-7.6402,-7.6402,-7.6402,0,0,-7.5543,-7.5592,-7.5654,-7.5776,-7.5824,-7.5924,-7.5837,-7.5947,-7.602,-7.5968,-7.6107,-7.6136,-7.6203,-7.6362,-7.6433,-7.6391,-7.668,-7.6591,-7.6604,-7.6612,-7.67,-7.673,-7.6756,-7.6411,-7.641,-7.6408,0,0,-7.5738,-7.5786,-7.591,-7.596,-7.6034,-7.6049,-7.6079,-7.6144,-7.6162,-7.6301,-7.6264,-7.635,-7.6506,-7.6555,-7.6601,-7.6815,-7.6782,-7.6842,-7.6953,-7.7044,-7.7068,-7.709,-7.7166,-7.7193,-7.686,-7.686,-7.686,0,-7.5826,-7.5978,-7.5977,-7.609,-7.6144,-7.6104,-7.6229,-7.6276,-7.6373,-7.6411,-7.6363,-7.6558,-7.66,-7.6769,-7.6822,-7.686,-7.6893,-7.6835,-7.7065,-7.7087,-7.7107,-7.718,-7.7208,-7.6867,-7.6866,-7.6865,-7.6865,0,-7.6082,-7.6188,-7.6279,-7.6376,-7.6441,-7.6559,-7.6574,-7.6639,-7.6628,-7.6648,-7.6789,-7.6839,-7.6933,-7.6973,-7.6962,-7.7141,-7.7113,-7.7065,-7.6979,-7.7144,-7.7212,-7.7239,-7.6877,-7.6874,-7.6872,-7.687,0,0,-7.6333,-7.6429,-7.6463,-7.6507,-7.6585,-7.6665,-7.6781,-7.6876,-7.6931,-7.6999,-7.7095,-7.7228,-7.7185,-7.7237,-7.7231,-7.7311,-7.7477,-7.7253,-7.7255,-7.7293,-7.7675,-7.7711,-7.7743,-7.7455,-7.746,-7.7464,-7.767,0,-7.6534,-7.674,-7.6743,-7.6931,-7.7027,-7.6991,-7.7091,-7.7149,-7.717,-7.7254,-7.7275,-7.737,-7.7306,-7.7337,-7.7414,-7.744,-7.7553,-7.7425,-7.7543,-7.7547,-7.7528,-7.7779,-7.7816,-7.8008,-7.7696,-7.7701,-7.7704,0,-7.6796,-7.6875,-7.7074,-7.7139,-7.7179,-7.727,-7.7357,-7.7438,-7.7502,-7.7511,-7.757,-7.7552,-7.7668,-7.7579,-7.7737,-7.765,-7.7698,-7.7718,-7.7725,-7.7736,-7.7636,-7.7796,-7.8069,-7.8098,-7.7746,-7.7743,-7.774,0,-7.696,-7.7115,-7.7255,-7.7293,-7.7372,-7.7436,-7.7471,-7.7531,-7.7587,-7.7662,-7.7699,-7.7785,-7.7833,-7.7899,-7.7905,-7.7839,-7.8065,-7.7976,-7.8075,-7.8075,-7.8124,-7.8121,-7.8408,-7.8155,-7.8154,-7.8154,-7.8153,0,-7.7184,-7.7307,-7.7329,-7.7415,-7.7551,-7.7552,-7.7685,-7.7715,-7.7768,-7.7857,-7.7829,-7.7912,-7.7915,-7.8,-7.8004,-7.8135,-7.8156,-7.8166,-7.8166,-7.8169,-7.8168,-7.82,-7.8187,-7.8162,-7.816,-7.8158,-7.8157,0,-7.739,-7.741,-7.7559,-7.7622,-7.764,-7.7738,-7.779,-7.7871,-7.789,-7.8003,-7.8029,-7.8057,-7.8156,-7.8168,-7.8282,-7.8285,-7.8443,-7.8428,-7.8422,-7.842,-7.8518,-7.8509,-7.8837,-7.888,-7.8598,-7.8601,-7.8603,0,-7.7532,-7.7626,-7.77,-7.7759,-7.7798,-7.7893,-7.7951,-7.7955,-7.8016,-7.8097,-7.8167,-7.8264,-7.8341,-7.8499,-7.8529,-7.8616,-7.8603,-7.8712,-7.8616,-7.8616,-7.8605,-7.8599,-7.8608,-7.8731,-7.8734,-7.8736,-7.8738,0,-7.7782,-7.7788,-7.7874,-7.7965,-7.8036,-7.8106,-7.8172,-7.8221,-7.8233,-7.8303,-7.8405,-7.8465,-7.8583,-7.8678,-7.8764,-7.8797,-7.877,-7.8768,-7.8796,-7.88,-7.8793,-7.8798,-7.8473,-7.8761,-7.8759,-7.8757,-7.8756,-7.8755,-7.7961,-7.8043,-7.8108,-7.8205,-7.8255,-7.8318,-7.8397,-7.8426,-7.8512,-7.861,-7.8606,-7.8718,-7.8778,-7.8891,-7.8931,-7.9017,-7.898,-7.902,-7.903,-7.904,-7.905,-7.8779,-7.9032,-7.9031,-7.9031,-7.903,-7.903,0,-7.8209,-7.8249,-7.8339,-7.8434,-7.851,-7.8479,-7.8551,-7.8616,-7.8716,-7.8775,-7.8853,-7.8969,-7.9061,-7.9098,-7.9188,-7.925,-7.9239,-7.9273,-7.9269,-7.9277,-7.9078,-7.9045,-7.928,-7.928,-7.928,-7.928,-7.928,-7.928,-7.8348,-7.8485,-7.8498,-7.8659,-7.8697,-7.8809,-7.8852,-7.8909,-7.8957,-7.909,-7.9167,-7.9191,-7.9242,-7.9335,-7.9418,-7.9426,-7.946,-7.95,-7.9503,-7.9316,-7.9291,-7.9267,-7.9236,-7.9507,-7.9508,-7.9694,-7.9696,-7.9697]}]]